Notices

What's New in latest Release from April 7th, 2021:

- Updated Glossary, including Speed of Maximum Gust, and Total Hourly Precipitation

- Updated national and regional climate services offices contacts and prices information

- Addition of station inventory lists for 1981-2010, 1971-2000, and 1961-1990 Normals.

If you haven't already, please take our survey and provide feedback about our website: https://eccc.sondage-survey.ca/f/LanguageSelection.aspx?s=442ca660-fcf1-47c0-95a9-59707d6fd709

Hourly Data Report for January 06, 2005

SHERBROOKE A
QUEBEC

45°26'00.000" N
71°41'00.000" W
241.40 m
7028124
71610
YSC

Download Data

Hourly Data (January 2005)
Hourly Data Report for January 6, 2005
TIME
LST
Temp Definition
°C
Dew Point Definition
°C
Rel Hum Definition
%
Precip. Amount Definition
mm

Wind Dir Definition
10's deg

Wind Spd Definition
km/h
Visibility Definition
km
Stn Press Definition
kPa
Hmdx Definition


Wind Chill Definition


Weather Definition


00:00 -18.0 -20.0 84   10 6 15.0 99.47   -23  
01:00 -17.5 -19.6 84   7 6 15.0 99.41   -22  
02:00 -16.9 -19.1 83   9 7 15.0 99.37   -22  
03:00 -16.7 -19.0 82   7 6 15.0 99.32   -21  
04:00 -17.1 -19.4 82   5 6 15.0 99.25   -22  
05:00 -16.8 -19.3 81   4 6 15.0 99.17   -21  
06:00 -17.3 -19.7 82   5 7 15.0 99.18   -23  
07:00 -17.2 -19.5 82   6 4 15.0 99.14   -20  
08:00 -16.6 -18.9 82   5 6 19.3 99.14   -21 Cloudy
09:00 -15.6 -18.0 82   7 6 19.3 99.09   -20 Cloudy
10:00 -13.9 -17.1 77   5 6 19.3 98.99   -18 Cloudy
11:00 -11.8 -16.1 70   8 6 19.3 98.84   -16 Cloudy
12:00 -10.1 -15.5 65   4 7 19.3 98.61   -14 Cloudy
13:00 -8.5 -14.6 61   6 7 19.3 98.46   -12 Cloudy
14:00 -7.7 -13.2 65   7 6 19.3 98.34   -11 Cloudy
15:00 -7.7 -10.1 83   9 9 6.4 98.22   -12 Snow
16:00 -6.8 -8.6 87   14 7 2.8 98.13   -10 Snow
17:00 -6.8 -8.6 87   11 7 2.8 97.98   -10 Snow
18:00 -6.2 -8.2 86   12 9 1.0 97.93   -10 Snow
19:00 -5.8 -7.7 86   11 13 0.8 97.92   -11 Snow
20:00 -5.9 -7.8 86   12 11 1.6 97.87   -11 Snow
21:00 -5.7 -7.5 87   10 7 3.5 97.78   -9 Snow
22:00 -5.1 -7.1 86   11 6 11.3 97.70   -8 Snow
23:00 -4.7 -6.9 85   10 4 15.0 97.65   -6 Snow

Notes on Data Quality.

Legend

  • E = Estimated
  • M = Missing
  • NA = Not Available*
  • [empty] = Indicates an unobserved value
Date modified: